TimeCST,TemperatureF,Dew PointF,Humidity,Sea Level PressureIn,VisibilityMPH,Wind Direction,Wind SpeedMPH,Gust SpeedMPH,PrecipitationIn,Events,Conditions,WindDirDegrees,DateUTC
12:00 AM,6.8,3.2,85,30.25,5.0,Calm,Calm,-,N/A,,Clear,0,2013-01-07 06:00:00
12:53 AM,6.1,3.0,87,30.28,4.0,Calm,Calm,-,N/A,,Clear,0,2013-01-07 06:53:00
1:53 AM,5.0,1.9,87,30.27,6.0,Calm,Calm,-,N/A,,Clear,0,2013-01-07 07:53:00
2:53 AM,5.0,1.0,84,30.27,5.0,Calm,Calm,-,N/A,,Clear,0,2013-01-07 08:53:00
3:53 AM,3.9,-0.9,80,30.25,6.0,Calm,Calm,-,N/A,,Haze,0,2013-01-07 09:53:00
4:53 AM,1.9,-2.0,83,30.22,6.0,Calm,Calm,-,N/A,,Clear,0,2013-01-07 10:53:00
5:53 AM,1.0,-2.9,83,30.18,9.0,Calm,Calm,-,N/A,,Unknown,0,2013-01-07 11:53:00
6:53 AM,1.9,-0.9,88,30.17,10.0,Calm,Calm,-,N/A,,Clear,0,2013-01-07 12:53:00
7:53 AM,5.0,1.9,87,30.16,10.0,Calm,Calm,-,N/A,,Clear,0,2013-01-07 13:53:00
8:53 AM,10.9,7.0,84,30.14,10.0,Calm,Calm,-,N/A,,Clear,0,2013-01-07 14:53:00
9:17 AM,15.8,10.4,79,30.10,1.8,Calm,Calm,-,N/A,,Clear,0,2013-01-07 15:17:00
9:27 AM,15.8,12.2,86,30.10,3.0,Calm,Calm,-,N/A,,Clear,0,2013-01-07 15:27:00
9:53 AM,30.0,19.9,66,30.13,10.0,SSW,10.4,-,N/A,,Clear,200,2013-01-07 15:53:00
10:53 AM,36.0,21.0,55,30.10,10.0,SW,16.1,23.0,N/A,,Clear,230,2013-01-07 16:53:00
11:53 AM,37.0,21.9,54,30.08,10.0,SW,19.6,28.8,N/A,,Clear,220,2013-01-07 17:53:00
1:53 PM,37.9,24.1,57,30.04,10.0,SSW,13.8,21.9,N/A,,Clear,200,2013-01-07 19:53:00
2:53 PM,37.9,25.0,60,30.04,10.0,SSW,6.9,-,N/A,,Clear,210,2013-01-07 20:53:00
3:53 PM,37.9,26.1,62,30.06,10.0,SSW,8.1,-,N/A,,Clear,200,2013-01-07 21:53:00
5:53 PM,34.0,26.1,73,30.07,10.0,SW,4.6,-,N/A,,Clear,220,2013-01-07 23:53:00
6:53 PM,33.1,25.0,72,30.07,10.0,Calm,Calm,-,N/A,,Clear,0,2013-01-08 00:53:00
7:53 PM,32.0,25.0,75,30.06,10.0,SW,4.6,-,N/A,,Unknown,220,2013-01-08 01:53:00
8:53 PM,32.0,25.0,75,30.06,10.0,Calm,Calm,-,N/A,,Clear,0,2013-01-08 02:53:00
9:53 PM,32.0,25.0,75,30.06,10.0,SSW,4.6,-,N/A,,Clear,200,2013-01-08 03:53:00
10:53 PM,30.0,25.0,82,30.05,9.0,Calm,Calm,-,N/A,,Clear,0,2013-01-08 04:53:00
11:53 PM,27.0,23.0,85,30.06,8.0,Calm,Calm,-,N/A,,Clear,0,2013-01-08 05:53:00